Location: Pordenone
(45.9640°N, 12.6580°E)
Time: 17:37:14
(UTC+02:00)

ISS - Pass Details

Date: 20 May 2021
Orbit: 417 x 422 km, 51.6° (Epoch: 18 June)

Event Time Altitude Azimuth Distance (km) Brightness Sun altitude
Rises 22:54:44 0° 284° (WNW) 2,366 0.8 -17.5°
Reaches altitude 10° 22:57:00 10° 295° (WNW) 1,503 -0.1 -17.7°
Maximum altitude 23:00:00 30° 359° (N) 793 -1.8 -18.0°
Drops below altitude 10° 23:03:02 10° 62° (ENE) 1,506 -1.0 -18.2°
Enters shadow 23:03:59 - 68° (ENE) 1,858 -0.6 -18.3°
